GFSFLT1_sfc_thetae_027.txt.gz
Theta_e
323 326 325 325 327 329 330 331 332 331 330 329 325 324 324 324 322 321 321 321 322 322 321 322 323 321 322 322 324 321 321 320
319 320 321 321 322 322 327 328 328 326 326 322 321 319 320 319 319 321 321 321 320 320 319 319 321 319 321 323 322 321 320 322
315 317 319 319 319 320 321 321 320 319 319 319 319 319 319 319 321 320 319 319 318 316 316 315 315 315 318 319 320 317 319 321
313 315 317 319 318 318 318 318 318 318 319 319 318 318 318 316 317 317 317 317 315 315 314 313 314 315 314 316 316 315 313 316
313 314 315 317 318 319 318 318 317 317 319 317 317 315 314 316 316 315 315 316 313 312 311 312 312 312 313 313 312 315 314 310
313 313 315 316 318 318 318 317 316 317 317 317 316 314 313 313 313 312 311 311 310 309 310 310 311 310 312 311 311 310 309 308
313 314 315 315 318 318 318 316 315 315 316 315 313 312 310 309 309 308 308 308 308 308 308 308 309 309 309 308 308 306 305 304
311 312 313 314 314 316 316 315 314 315 314 313 312 311 310 309 308 307 306 305 304 305 306 307 307 307 305 304 303 302 301 298
311 311 313 314 314 315 316 314 312 312 313 312 312 311 310 309 309 307 305 304 303 305 306 305 304 302 301 301 300 299 298 295
310 311 313 312 312 313 314 312 311 311 311 312 311 311 309 308 308 306 304 303 303 305 302 298 297 298 298 297 297 297 298 298
310 311 311 311 312 312 312 310 309 310 310 309 308 308 308 307 306 303 303 303 303 301 298 297 297 296 296 297 296 296 295 295
309 310 311 310 310 310 309 309 308 307 305 305 305 305 305 305 303 302 302 301 299 299 299 297 296 297 297 297 297 296 294 294
307 308 308 308 308 307 307 306 303 302 302 302 302 303 303 302 301 299 300 300 300 299 298 298 297 297 296 295 294 293 293 292
307 307 306 306 306 305 303 301 300 300 301 301 301 301 301 300 300 300 299 299 298 298 297 297 296 295 294 294 293 292 292 291
305 305 306 306 304 302 299 299 300 300 301 300 299 300 300 299 299 295 298 298 297 297 297 295 294 293 292 292 292 290 290 290
304 304 304 302 301 299 299 298 299 300 299 299 298 298 298 299 298 297 297 297 295 294 293 293 293 292 290 290 289 288 287 287
303 301 299 299 298 298 298 298 298 300 299 298 297 296 295 295 296 295 294 293 293 293 292 291 291 290 285 284 285 286 285 286
297 296 298 299 299 298 296 297 298 298 297 297 295 295 294 294 294 293 293 292 292 291 291 290 290 290 284 284 284 285 284 285
294 297 299 299 298 298 298 297 297 297 296 296 295 294 293 293 292 291 291 291 290 290 289 289 289 288 285 283 283 284 285 285

GFSFLT1_sfc_thetae_033.txt.gz
Theta_e
315 316 317 318 320 321 321 322 322 323 322 320 319 315 315 315 313 313 314 314 315 312 312 311 312 310 309 309 308 308 309 309
313 314 314 315 315 315 314 313 314 314 312 310 309 309 310 311 312 313 313 313 313 311 310 309 308 307 306 306 306 305 305 307
312 312 312 312 312 311 312 311 311 311 310 309 310 309 310 310 312 313 313 311 311 310 307 306 305 305 305 304 303 301 302 303
309 310 309 308 309 308 310 310 310 311 311 311 311 310 309 308 307 308 307 307 307 305 304 304 303 303 302 301 301 301 299 301
309 309 308 309 308 309 309 310 309 311 310 309 307 305 304 305 305 305 304 306 305 304 302 302 302 302 301 301 302 299 299 295
307 307 309 309 309 308 309 309 309 310 309 308 306 305 305 305 304 304 304 304 303 302 302 301 301 301 299 298 298 298 300 298
306 308 309 309 309 308 308 308 308 308 307 307 305 304 304 303 303 302 301 301 300 300 301 300 299 298 298 297 296 298 295 295
304 305 305 306 306 306 307 307 306 306 306 306 305 304 303 301 301 299 298 298 297 298 298 297 296 296 296 296 296 294 294 293
303 304 304 304 305 305 305 305 305 305 306 304 303 303 302 302 301 300 298 297 296 297 296 296 295 295 295 294 293 294 292 292
304 304 304 304 304 304 303 303 304 303 300 298 298 299 299 298 298 297 296 297 298 296 295 295 294 294 293 293 292 291 291 291
304 303 304 304 303 303 302 302 300 298 297 297 297 297 297 297 296 295 296 295 296 296 295 294 293 293 294 292 291 291 291 290
302 302 304 303 303 301 300 297 296 295 295 296 296 296 297 297 297 296 296 295 294 294 295 296 296 296 296 293 292 291 291 290
302 302 303 302 301 299 296 295 294 294 295 295 295 295 296 296 295 295 295 294 295 295 297 296 295 294 294 293 290 289 287 285
301 301 300 299 300 299 295 295 294 295 295 295 294 294 294 294 294 294 294 294 294 293 294 294 293 292 290 288 287 286 285 284
300 300 298 297 300 299 296 295 294 294 294 294 294 293 293 293 293 293 293 294 293 292 291 291 290 288 287 286 285 283 283 283
298 296 295 295 296 296 296 294 294 294 293 293 293 293 293 292 292 292 292 291 290 290 289 288 287 286 285 283 282 281 281 281
296 296 295 295 296 297 295 294 294 294 293 292 293 293 292 292 291 290 290 289 290 288 287 286 284 285 286 285 283 280 280 280
294 294 294 296 296 298 294 293 294 294 293 294 294 293 293 291 291 291 289 287 285 286 285 284 283 282 286 285 285 280 279 278
294 294 295 296 296 295 293 294 294 294 294 293 293 292 292 292 292 290 287 285 284 284 283 283 282 284 286 286 286 280 279 279

GFSFLT1_sfc_thetae_036.txt.gz
Theta_e
312 313 314 314 314 317 318 319 322 323 321 318 313 312 310 312 311 312 314 315 313 310 309 308 307 306 305 304 303 304 303 303
310 312 312 313 314 313 314 314 314 314 312 311 309 308 308 309 311 313 313 311 309 306 305 305 304 304 303 303 302 301 300 302
309 309 310 309 311 312 310 309 309 309 309 308 309 308 308 308 309 307 307 305 305 303 302 302 302 301 301 300 299 299 300 300
307 308 307 307 306 307 308 308 308 308 309 308 307 307 306 304 304 303 304 304 303 301 301 300 300 301 299 299 298 297 296 297
307 306 306 306 305 306 307 307 308 309 308 306 305 303 302 302 301 301 302 302 301 301 301 300 300 300 298 298 299 297 299 297
306 306 307 306 307 306 306 307 307 306 306 305 304 303 303 304 303 302 301 300 300 302 301 299 298 298 297 296 295 295 295 293
305 306 307 306 306 305 305 304 304 305 305 304 303 302 302 301 301 300 299 299 299 299 299 297 296 296 295 295 294 293 292 292
304 305 305 305 304 304 304 304 303 304 304 303 302 301 300 299 299 297 297 296 296 296 296 295 294 294 294 293 292 291 291 290
302 303 304 303 303 303 303 302 303 304 300 298 298 298 298 298 298 297 296 296 296 296 295 294 294 294 294 292 291 291 291 289
303 303 302 301 301 302 301 301 298 297 297 296 296 296 296 296 296 295 295 295 297 295 294 294 293 293 293 291 290 290 289 289
302 302 303 301 301 299 298 296 295 296 296 295 296 295 297 296 295 294 293 294 294 293 293 293 292 295 295 292 291 291 290 290
301 302 301 300 298 296 294 295 294 294 296 295 294 294 295 295 294 294 294 293 293 293 294 294 294 292 293 292 291 291 289 287
300 298 298 297 297 295 294 293 295 294 294 294 294 293 295 294 294 294 293 292 293 293 293 293 292 292 291 289 287 286 284 283
299 298 296 296 297 297 294 294 293 293 294 293 293 292 293 293 293 293 293 293 292 292 292 291 290 288 286 285 284 283 282 282
297 295 294 295 296 296 295 294 293 293 293 292 291 291 292 291 292 292 292 292 291 290 290 289 287 285 285 284 283 281 281 281
295 294 293 294 294 295 296 294 294 293 292 291 291 291 291 292 291 291 293 292 291 290 287 286 285 284 284 282 281 280 280 280
294 294 294 294 295 295 295 295 293 293 292 292 293 292 292 291 292 291 292 291 291 287 285 285 284 285 286 285 283 280 280 280
293 293 293 293 293 294 291 291 292 292 292 293 292 292 291 290 290 290 291 289 287 285 285 284 282 282 286 286 286 282 279 278
292 292 293 293 292 290 289 289 289 288 291 291 291 291 290 290 290 289 287 287 285 284 282 282 281 282 285 286 286 281 279 279

GFSFLT1_sfc_thetae_039.txt.gz
Theta_e
310 311 312 314 315 317 319 321 324 323 319 316 312 310 310 310 309 310 310 309 310 308 305 306 307 305 302 301 301 300 300 300
309 310 311 312 314 316 317 317 317 314 312 311 308 306 308 308 307 308 307 307 306 305 304 302 302 301 300 300 300 298 298 299
307 307 309 310 312 312 310 310 309 309 308 307 308 306 304 304 305 304 303 302 302 301 300 301 303 302 301 299 298 298 298 297
306 307 307 307 307 305 306 306 306 307 307 306 305 305 304 302 301 300 301 301 301 300 300 300 299 299 298 296 296 295 294 295
306 305 304 303 303 304 305 306 306 307 306 304 303 301 300 300 300 300 300 300 300 301 300 299 298 297 296 295 298 294 294 292
305 306 305 304 304 303 304 305 305 305 304 304 302 301 302 302 302 301 300 299 301 301 299 297 296 296 295 294 293 293 293 291
305 305 306 304 304 303 301 303 302 303 303 303 302 301 301 300 300 299 298 297 297 297 297 295 295 294 293 293 292 291 291 291
303 304 306 307 305 304 301 301 302 302 301 301 300 299 298 297 297 296 295 294 295 295 295 294 293 293 293 292 291 290 290 288
305 306 306 305 303 301 300 301 301 298 297 296 296 297 296 296 296 295 295 295 295 295 294 293 293 293 292 292 290 289 289 288
302 301 300 303 302 299 299 298 296 296 295 295 295 295 295 295 295 294 293 294 296 294 293 292 292 292 292 292 289 288 288 288
301 300 301 300 298 298 296 294 294 294 294 294 295 294 295 295 294 293 293 293 293 293 292 291 291 291 291 291 289 289 288 287
297 297 298 299 299 294 293 293 293 292 294 294 293 293 294 294 293 293 293 292 292 291 292 292 292 290 290 289 288 286 284 283
298 298 297 297 296 294 293 292 292 292 292 293 293 292 292 293 293 293 293 291 291 292 291 291 291 289 288 286 284 283 282 281
295 295 295 296 296 296 295 294 292 292 291 291 291 291 290 291 292 292 292 291 292 291 292 292 289 288 286 284 283 282 281 281
295 295 295 295 296 295 294 294 293 292 292 291 290 290 290 290 290 291 291 291 291 291 290 290 289 286 284 283 282 281 281 281
293 293 293 293 292 293 293 292 292 292 291 290 290 290 290 290 290 290 290 291 290 290 291 288 286 285 284 282 281 281 280 280
293 293 292 292 292 292 291 289 289 290 289 290 291 290 290 290 289 289 288 288 289 291 287 286 285 284 286 286 284 280 281 280
292 291 291 291 290 290 286 287 288 288 288 290 290 290 289 289 289 289 287 287 287 286 285 285 282 282 286 286 286 282 280 279
291 291 289 288 286 286 286 287 286 286 288 289 290 289 289 289 288 287 284 285 284 284 282 282 281 282 285 285 283 278 278 278

GFSFLT1_sfc_thetae_042.txt.gz
Theta_e
308 310 314 315 318 320 322 323 322 318 317 317 316 313 307 306 307 307 308 308 308 306 305 305 304 302 300 301 300 300 298 299
307 309 311 315 315 318 321 321 320 318 315 311 307 305 305 303 304 305 304 304 303 301 300 300 300 300 299 300 299 297 298 298
306 307 308 309 312 315 314 312 311 310 308 307 304 302 301 301 301 301 301 300 300 300 299 299 299 299 298 297 296 295 296 296
305 307 307 308 306 304 306 307 307 307 306 305 304 303 302 300 299 299 299 300 300 299 299 299 298 297 295 294 294 293 292 294
304 303 302 302 302 303 304 305 305 305 304 303 301 300 299 299 299 299 298 299 299 300 299 298 296 296 294 293 295 293 292 290
302 302 303 303 303 302 304 304 304 304 303 303 301 300 300 300 300 299 298 298 299 298 297 295 294 295 294 293 293 292 292 290
304 303 304 303 303 301 302 304 303 303 302 302 301 300 299 298 298 297 296 295 296 296 296 295 294 294 292 292 291 290 290 290
303 303 303 305 305 302 302 302 302 302 300 299 298 297 297 295 295 295 295 294 294 295 294 293 292 292 292 291 290 289 289 288
302 305 304 304 302 301 301 302 299 296 296 296 296 295 295 295 295 295 294 294 294 294 294 293 292 292 291 290 289 289 288 288
301 300 299 299 299 299 299 297 295 295 295 294 294 294 294 294 294 293 293 293 295 294 293 291 291 291 291 290 289 288 288 287
298 298 298 298 298 297 294 294 293 293 293 293 294 293 293 294 293 293 292 292 292 292 291 290 291 291 290 290 289 288 287 287
295 295 296 295 293 292 292 293 293 292 291 292 292 292 292 293 292 292 292 291 291 290 291 291 291 290 290 289 288 286 284 283
294 294 296 296 297 297 294 294 293 291 290 290 290 291 290 290 291 292 292 291 291 290 291 290 291 290 289 287 285 284 282 282
293 293 293 295 296 296 296 294 292 291 291 290 290 290 289 288 289 290 291 290 290 290 290 289 289 289 286 285 284 282 282 281
293 292 292 293 294 294 293 291 290 290 290 289 289 288 288 288 288 289 289 290 289 289 288 289 290 287 285 284 283 282 280 281
292 292 293 293 292 292 290 289 289 289 288 288 288 288 288 289 289 289 288 288 288 288 288 289 287 285 284 283 282 281 280 280
291 291 291 290 290 289 287 287 287 287 286 288 289 289 289 288 288 287 287 287 287 289 288 286 284 285 286 286 285 282 282 281
291 290 290 289 287 287 285 285 286 286 286 288 289 289 288 288 288 287 286 285 285 284 283 283 282 281 285 285 285 280 279 278
289 289 287 286 284 284 284 285 284 285 287 287 288 287 287 287 287 287 286 287 287 286 282 280 280 282 284 284 282 278 277 277

GFSFLT1_sfc_thetae_045.txt.gz
Theta_e
314 318 321 323 325 326 325 326 324 319 317 316 315 315 312 312 313 312 314 313 313 312 310 310 310 309 308 307 306 305 305 305
316 319 322 324 326 326 325 321 319 318 317 316 312 312 312 311 312 312 311 310 310 310 309 309 308 307 306 306 304 303 302 304
313 316 320 323 324 326 323 323 319 318 317 316 314 312 311 311 309 309 308 309 309 308 309 307 307 306 305 304 303 301 301 303
310 312 314 317 319 320 319 318 319 318 317 314 312 311 310 309 309 308 307 308 308 308 307 307 306 306 303 303 302 300 298 301
310 310 310 311 312 313 314 314 313 314 314 313 311 311 310 309 309 308 307 307 307 307 306 306 305 305 302 301 302 301 300 297
309 309 310 309 310 311 311 312 311 311 312 312 311 309 309 309 310 308 307 307 306 305 305 304 304 303 303 301 300 299 299 297
309 309 310 309 310 310 310 310 309 309 309 310 310 308 306 306 306 306 305 305 305 305 304 304 303 302 301 300 300 299 298 298
308 308 308 309 309 308 309 309 307 307 307 306 306 305 303 302 302 302 302 303 303 304 304 303 302 301 300 300 299 298 298 297
308 309 310 310 309 308 308 307 304 303 303 303 303 303 303 303 303 303 303 303 303 305 303 302 301 301 300 300 299 299 299 298
308 309 309 308 307 306 307 303 302 301 300 302 302 303 302 302 303 303 303 303 302 302 302 301 301 301 300 300 299 298 298 297
304 304 304 303 304 302 301 300 298 298 299 301 300 300 300 301 302 301 301 301 301 300 300 300 299 299 299 299 298 297 296 295
300 300 300 299 299 299 299 297 297 299 298 298 299 299 299 299 299 299 299 299 300 299 299 298 297 298 298 297 295 294 291 290
299 299 300 300 300 299 298 298 298 298 297 298 298 297 298 297 297 297 298 298 299 299 299 297 297 296 296 293 292 290 289 287
298 298 298 298 298 299 298 296 295 296 295 295 296 296 296 296 296 296 297 296 296 297 296 296 295 294 291 290 289 288 287 287
297 296 297 297 297 296 294 295 295 294 294 294 295 295 295 295 295 295 295 295 295 295 295 294 294 291 289 288 288 287 286 286
295 295 296 296 295 294 293 293 293 293 293 293 295 295 295 295 295 295 295 294 294 294 293 291 289 289 288 288 287 287 286 286
295 295 294 293 292 291 291 291 292 292 292 292 294 295 294 294 294 294 294 293 292 292 290 289 289 289 286 286 287 287 285 283
293 294 292 292 291 290 290 290 291 291 291 292 293 293 292 292 293 293 292 292 291 290 290 289 288 287 285 285 283 284 283 282
294 293 292 290 290 290 290 290 290 290 290 290 291 291 291 292 292 292 292 292 292 291 290 287 286 286 284 284 282 283 282 281

GFSFLT1_sfc_thetae_048.txt.gz
Theta_e
322 325 327 328 331 332 332 331 326 322 323 322 321 318 316 317 317 318 319 318 318 318 317 316 316 315 313 312 310 309 308 307
324 326 328 330 331 330 331 329 327 326 323 319 317 316 316 317 317 317 317 316 316 317 316 316 315 312 311 309 307 306 304 306
322 326 328 329 329 330 330 329 329 330 328 324 321 319 318 317 317 316 316 315 315 315 315 314 312 309 308 307 306 303 303 304
321 323 327 329 329 329 329 329 329 327 323 321 320 318 317 315 316 315 314 314 314 314 313 311 309 308 305 305 304 303 300 302
318 317 318 321 324 325 324 325 324 322 322 319 316 316 314 316 318 316 316 315 314 312 310 309 308 307 305 304 303 303 302 298
313 314 316 317 319 319 320 319 318 318 318 318 317 315 315 316 317 313 313 313 311 309 308 308 307 306 305 305 304 303 301 299
314 315 316 316 318 319 318 317 316 317 317 317 316 314 310 310 309 307 307 307 307 307 307 307 307 306 305 304 304 303 301 301
313 313 314 315 316 317 317 316 314 315 315 313 311 309 307 306 306 306 304 304 304 305 306 307 306 306 305 304 303 302 301 299
314 314 315 315 315 316 315 314 312 311 310 308 308 307 309 307 306 306 305 304 305 306 306 306 306 305 305 304 302 301 301 300
314 315 315 316 316 315 315 312 309 307 305 305 304 306 306 305 306 306 306 306 305 305 305 305 305 304 304 303 301 300 300 300
314 314 314 315 314 313 311 308 304 303 303 303 303 305 305 305 305 304 303 303 303 303 303 303 302 302 302 301 300 299 298 298
311 311 311 311 310 308 306 305 303 302 300 301 304 304 302 301 301 300 300 300 299 299 299 300 300 300 300 300 299 297 295 295
308 308 306 306 306 305 302 305 302 300 302 302 300 300 300 299 298 299 299 298 299 298 299 299 299 299 299 297 296 295 293 292
306 305 305 305 303 302 300 301 299 299 300 299 299 298 298 298 298 298 298 298 298 298 298 297 297 297 296 295 293 292 291 292
305 304 303 302 301 300 300 297 298 299 298 297 296 297 298 298 297 297 297 298 297 297 297 296 294 293 292 291 292 291 291 291
303 302 301 301 300 298 297 297 298 297 296 295 296 298 298 297 297 297 297 297 297 296 295 294 294 293 292 292 292 291 291 290
302 301 300 299 297 297 295 296 297 296 295 294 295 296 296 297 296 296 296 296 296 296 294 294 293 292 286 286 286 290 289 288
300 299 297 296 296 295 295 296 296 294 293 293 293 294 294 295 295 295 295 295 294 293 293 293 292 292 286 285 284 288 287 286
299 298 296 296 296 295 295 295 294 292 292 292 292 293 293 294 295 294 294 293 293 291 290 292 292 290 285 284 283 287 287 286

GFSFLT1_sfc_thetae_051.txt.gz
Theta_e
324 326 327 328 329 332 334 331 327 327 328 323 324 321 320 320 320 319 319 319 319 318 318 318 317 315 314 313 311 310 307 306
325 328 329 330 332 333 332 328 330 331 329 326 324 322 320 319 318 319 319 318 318 318 317 316 316 312 312 311 308 306 305 306
325 328 330 331 331 331 329 329 329 330 328 327 325 322 319 319 319 319 318 318 317 316 316 314 313 310 309 308 307 304 303 304
325 327 327 327 326 329 330 330 330 328 326 323 322 320 319 317 317 317 317 317 316 315 314 312 310 308 306 306 306 303 300 301
324 325 327 328 328 328 326 326 326 324 323 320 319 315 313 317 317 317 317 316 314 312 311 309 309 308 307 306 305 304 302 298
318 320 321 323 324 324 325 324 322 322 320 320 318 317 318 318 316 314 314 313 312 310 309 308 308 307 307 306 305 304 302 300
316 317 318 319 322 321 321 319 319 320 319 319 318 316 314 313 312 309 309 308 308 308 307 308 308 307 306 305 306 304 302 301
315 315 316 318 319 320 320 318 317 319 319 317 315 313 310 308 308 308 306 305 305 306 307 306 305 305 305 305 305 303 302 300
315 316 317 318 318 319 318 318 316 317 315 313 311 309 310 309 308 307 306 305 306 307 306 305 305 305 306 304 304 303 302 302
315 316 318 318 318 319 318 317 315 313 310 308 308 308 307 306 307 307 306 306 304 304 304 303 303 302 302 303 302 301 301 300
316 317 318 319 319 318 319 317 312 307 307 306 304 305 307 307 306 304 303 302 301 300 300 300 300 300 301 300 301 300 299 299
316 317 318 318 318 316 313 310 307 306 304 304 304 305 304 303 302 301 300 301 300 299 299 299 299 299 299 299 299 298 296 296
316 316 315 314 313 311 309 308 305 303 303 304 302 302 302 301 300 300 300 299 300 299 299 298 298 298 298 297 296 296 295 293
314 313 311 310 310 308 307 304 302 300 303 300 301 300 299 299 299 299 299 299 299 298 298 298 297 298 297 296 295 294 294 293
311 310 309 309 308 306 303 302 302 301 300 299 298 298 299 299 299 298 299 299 298 298 298 297 295 294 295 294 293 292 292 292
309 309 308 307 305 303 303 301 300 300 298 297 297 298 298 298 298 298 298 298 298 297 297 296 294 294 293 292 293 292 291 291
309 308 307 305 304 301 301 300 299 299 296 296 296 296 296 296 297 297 297 297 297 297 295 294 294 293 287 287 287 290 290 289
307 306 305 304 302 301 298 298 298 296 295 294 294 294 294 295 295 296 296 296 296 295 294 293 293 294 287 287 285 288 288 288
307 306 304 302 300 297 298 297 296 294 293 293 293 294 293 294 295 295 296 296 295 293 293 293 291 292 287 285 284 287 288 288

GFSFLT1_sfc_thetae_057.txt.gz
Theta_e
313 315 322 325 326 326 325 322 320 319 319 318 318 317 316 316 313 314 314 314 314 312 310 309 308 306 304 303 300 300 298 297
315 318 318 324 325 324 322 320 320 320 318 317 316 314 314 313 313 314 313 312 312 310 309 307 305 303 302 301 299 298 296 296
318 319 320 325 325 323 322 320 322 321 320 319 316 314 312 311 311 311 312 311 311 310 307 304 303 301 300 299 298 296 295 296
318 321 323 323 322 322 322 322 322 322 323 323 316 313 311 309 308 308 310 311 309 307 305 303 301 300 298 297 297 296 293 294
320 321 321 322 323 324 325 324 323 324 324 316 313 308 307 307 308 309 309 310 308 307 304 302 302 301 299 298 299 296 295 293
319 320 321 321 323 322 322 323 323 321 317 314 310 308 309 311 313 311 310 310 309 306 304 301 301 301 299 299 299 296 295 293
321 321 322 320 320 321 322 318 315 313 313 311 310 308 305 303 303 304 304 303 302 302 302 300 299 298 297 297 297 296 296 295
317 318 316 314 313 313 312 312 311 312 312 309 305 303 302 302 302 302 302 300 301 300 300 298 297 297 297 297 296 296 296 294
311 312 312 311 312 311 310 311 311 311 308 306 304 304 303 304 303 302 301 300 300 297 295 295 295 295 294 294 293 293 295 293
309 310 312 311 311 311 310 310 311 310 305 303 302 302 302 303 303 303 302 298 297 295 294 294 294 294 294 293 292 292 293 292
308 310 311 313 313 312 311 312 310 305 302 301 302 301 302 304 302 301 298 295 295 294 293 293 293 293 293 292 292 292 291 290
307 308 312 313 314 314 309 305 305 302 299 300 301 302 303 302 299 296 294 294 294 294 294 294 294 293 293 292 291 291 290 289
308 309 313 313 313 312 305 304 301 299 301 302 303 304 302 298 296 294 294 293 294 294 294 294 294 293 292 291 290 290 289 287
308 311 312 312 311 308 304 301 300 303 304 302 302 301 296 294 293 294 294 293 293 293 294 294 294 292 290 290 290 290 288 288
309 311 311 310 309 303 301 301 300 301 301 300 297 295 295 294 294 294 294 294 294 294 294 294 293 290 291 291 290 288 287 288
308 307 306 305 302 301 300 299 299 301 298 295 294 293 293 292 293 293 294 294 294 294 293 292 292 291 292 289 289 288 286 286
307 306 305 303 302 299 299 298 298 295 293 293 294 293 292 292 292 293 293 293 293 293 291 291 290 291 289 288 286 285 287 285
305 305 304 303 301 300 297 295 294 292 293 293 292 293 292 292 293 293 292 292 291 290 290 289 289 289 289 288 286 283 284 284
303 302 300 298 296 294 293 293 293 293 292 292 292 293 292 292 292 292 291 290 289 288 288 288 287 289 289 288 286 283 281 282

GFSFLT1_sfc_thetae_060.txt.gz
Theta_e
319 321 319 321 321 323 323 322 320 318 318 317 316 315 314 313 312 311 312 313 313 310 308 306 305 303 302 300 297 297 296 295
319 320 320 321 321 323 322 320 319 318 316 315 313 312 312 311 311 312 311 311 310 308 306 304 302 301 300 299 297 295 294 294
313 317 320 322 322 321 320 320 319 319 318 317 316 313 312 311 310 310 310 309 309 306 304 302 301 299 298 297 296 294 294 294
314 317 321 321 320 319 319 320 320 319 318 319 313 310 309 307 307 306 308 309 308 306 304 302 300 299 298 296 296 295 292 293
319 320 321 322 321 319 320 321 320 319 320 318 312 308 306 306 306 307 307 308 306 305 303 301 300 299 298 297 298 295 294 292
319 320 321 321 321 321 320 320 320 321 321 317 313 307 306 307 308 307 307 306 306 304 302 300 299 299 297 296 296 295 294 292
319 321 323 321 321 319 319 319 320 320 317 312 309 307 306 305 304 303 304 303 303 301 300 298 297 296 296 295 294 294 294 293
317 317 318 318 318 319 317 316 311 310 308 307 306 303 302 301 301 302 301 301 301 300 299 295 295 294 294 293 292 292 292 292
317 317 316 316 316 314 313 310 309 307 304 303 302 302 301 302 302 302 302 301 298 298 296 294 293 293 292 292 291 290 291 291
314 314 313 311 309 308 309 309 309 305 303 302 301 302 303 301 303 303 302 301 297 295 293 292 292 292 292 292 290 290 290 290
311 312 311 311 310 309 308 309 308 303 301 301 301 301 303 302 301 303 299 297 295 293 292 292 292 292 293 292 290 290 289 288
309 311 311 311 311 310 308 306 303 301 299 299 301 301 303 302 299 297 296 294 293 293 293 292 292 293 293 290 290 290 288 287
309 310 311 310 310 306 305 304 302 300 301 302 303 303 302 300 297 295 295 293 293 292 293 293 293 294 292 290 289 289 289 287
307 309 309 310 309 303 301 301 300 302 304 302 304 304 296 294 294 294 293 292 292 292 293 293 293 293 290 289 290 289 288 287
305 308 309 308 303 301 300 301 304 305 304 302 298 295 295 293 293 292 293 293 292 293 294 293 293 291 290 291 290 288 286 287
307 306 306 301 300 300 302 302 302 301 296 293 293 293 293 292 291 290 291 293 293 293 292 292 291 291 291 289 288 287 285 285
305 306 304 302 301 301 300 298 295 293 292 292 293 292 291 292 290 292 293 292 292 292 291 290 289 290 291 290 287 284 285 286
305 305 303 302 300 300 296 292 292 291 291 292 291 291 290 290 292 292 291 291 290 289 289 288 288 288 290 289 287 284 283 282
302 301 298 296 295 293 291 291 292 291 291 290 290 291 292 291 291 291 290 290 288 287 287 287 286 287 289 289 287 282 282 282

GFSFLT1_sfc_thetae_063.txt.gz
Theta_e
319 321 323 319 319 319 323 320 318 316 316 315 314 313 313 312 311 311 311 311 310 307 306 305 304 302 300 298 296 296 295 294
316 321 319 317 317 320 321 318 317 317 315 313 311 310 310 309 309 310 311 311 310 307 304 302 301 300 298 297 296 294 293 293
314 316 315 316 318 319 319 319 317 317 317 315 314 312 311 309 310 309 309 308 307 305 303 301 300 299 297 296 295 294 293 293
313 316 315 317 318 318 319 318 318 318 317 315 311 309 308 307 307 306 307 308 306 305 303 300 298 298 296 295 294 293 292 292
312 313 316 317 319 319 319 319 318 319 318 316 313 308 306 306 305 305 306 307 306 304 301 300 298 298 296 296 296 294 293 291
310 313 318 319 319 317 318 319 319 319 319 317 311 307 305 305 305 305 305 304 303 302 300 298 298 297 296 295 294 293 293 291
314 315 319 320 320 318 318 319 319 318 318 315 311 307 305 304 304 303 301 300 300 300 300 297 297 298 295 293 292 292 291 291
316 316 319 320 319 318 319 319 317 317 316 312 310 306 305 305 303 300 298 298 299 299 299 299 296 293 292 292 291 289 289 289
316 318 318 319 319 318 318 317 311 310 309 308 304 303 302 301 300 299 300 301 298 299 299 296 294 292 291 290 289 289 290 289
316 317 317 318 317 317 313 310 306 304 303 302 301 303 302 302 303 303 301 301 301 298 295 293 292 291 291 290 289 289 288 289
316 315 315 315 315 314 309 309 305 302 302 303 302 302 302 303 304 302 302 300 297 295 293 292 292 291 291 292 290 289 288 287
314 314 314 313 311 309 309 307 303 301 301 301 302 302 302 302 301 300 299 297 295 294 293 291 291 291 292 290 289 289 288 287
312 313 311 309 308 308 308 307 303 301 301 299 300 301 300 300 301 299 296 292 294 292 292 292 292 292 291 289 288 289 287 286
309 310 310 309 308 305 301 299 298 300 302 302 302 303 300 298 296 295 292 292 292 291 291 291 291 291 291 289 288 288 288 287
307 308 308 307 304 300 298 299 302 303 302 303 302 299 298 294 292 292 292 292 291 292 291 292 291 291 291 290 290 288 287 286
303 304 305 302 300 300 300 302 304 304 303 299 297 296 293 291 292 290 290 293 291 291 291 291 291 290 290 289 288 287 286 284
304 305 302 300 300 301 300 301 301 300 296 293 292 291 291 291 291 290 291 290 291 290 289 289 289 290 290 290 288 285 284 284
304 303 301 300 299 300 299 296 296 292 292 291 291 292 291 291 292 291 289 288 289 288 287 287 287 287 289 290 289 284 283 283
301 301 299 298 296 293 291 291 291 290 289 290 290 290 291 291 290 289 288 288 287 286 286 286 285 286 289 290 289 284 282 282

GFSFLT1_sfc_thetae_069.txt.gz
Theta_e
319 320 322 322 324 326 326 327 326 325 325 326 326 327 326 326 325 323 321 317 317 316 315 314 313 310 308 307 307 306 306 306
319 322 323 323 325 324 326 325 324 323 322 323 322 323 322 322 321 319 316 315 315 317 314 312 311 309 308 308 307 306 305 306
319 321 323 324 323 324 325 325 324 324 325 324 323 322 320 321 319 316 314 314 315 314 312 310 310 308 308 308 307 305 306 305
319 319 322 323 324 323 324 325 324 324 324 321 318 318 316 315 315 312 314 314 314 313 311 310 309 309 307 307 306 305 303 304
318 319 320 322 323 324 325 324 323 323 322 321 319 317 313 315 313 312 313 315 313 311 310 310 309 308 307 307 306 305 304 302
317 317 319 322 323 322 324 324 323 322 322 322 320 317 317 316 312 313 313 313 312 310 310 309 308 307 306 306 305 304 305 301
320 319 319 320 322 322 323 323 322 322 322 321 320 317 315 313 312 311 311 311 310 309 308 307 306 305 302 302 302 301 301 301
318 316 316 319 319 321 321 322 320 322 321 321 321 318 316 315 312 312 310 309 307 307 307 304 305 299 298 298 300 300 300 299
315 317 317 319 320 321 321 320 321 322 321 321 321 319 315 315 314 313 311 310 308 306 306 303 300 299 298 298 298 300 300 300
313 315 318 319 320 321 321 321 321 321 320 322 321 317 315 315 314 313 311 308 305 306 306 300 299 298 299 300 300 299 300 300
313 315 318 320 322 322 323 323 322 320 321 322 320 318 318 315 312 308 307 306 306 306 301 299 298 299 300 299 299 299 298 299
313 317 319 321 322 323 322 322 320 319 320 320 318 316 314 311 309 306 306 306 302 301 300 300 299 299 299 298 298 298 297 297
316 318 320 320 321 321 321 319 317 317 314 313 310 308 308 308 306 306 306 302 304 300 299 299 298 298 298 298 297 297 296 295
316 317 318 319 319 318 319 315 310 308 308 306 306 306 305 304 304 303 302 301 302 300 299 297 298 298 297 297 297 296 296 295
315 316 317 318 317 317 313 309 307 305 305 304 304 304 304 302 301 300 297 296 297 296 297 298 297 297 296 296 296 296 295 295
312 315 315 312 311 310 308 306 306 307 305 304 302 300 297 296 295 296 295 297 297 296 296 296 296 296 295 296 295 295 295 294
309 311 309 307 306 306 305 306 306 305 303 300 297 295 294 294 294 293 295 296 295 295 295 295 294 293 290 290 291 294 294 293
306 308 308 306 305 305 305 305 305 303 300 296 294 293 293 293 293 295 294 294 295 295 294 294 293 294 289 289 289 292 293 293
303 304 304 304 305 304 303 301 298 295 293 292 292 293 292 292 295 294 294 294 294 294 294 293 293 292 288 288 288 292 292 292

GFSFLT1_sfc_thetae_072.txt.gz
Theta_e
320 322 326 326 323 323 325 329 331 334 332 331 332 333 333 333 334 334 331 329 326 325 323 321 319 317 314 312 312 313 313 312
322 324 324 325 325 325 328 330 333 333 330 326 327 328 329 331 331 331 328 320 324 325 322 320 318 316 314 314 314 312 313 314
320 322 324 324 325 327 328 330 332 332 328 327 330 331 328 330 331 326 324 322 323 320 320 318 317 315 314 314 313 313 314 313
319 321 323 324 324 326 327 330 331 332 331 328 330 330 328 327 327 321 319 318 320 320 320 318 317 315 313 313 313 311 310 311
321 321 323 325 326 327 328 329 331 332 333 329 327 325 324 326 324 321 317 318 319 319 318 318 317 314 314 313 313 312 310 307
321 322 324 325 328 329 331 331 332 333 333 331 329 327 327 324 317 315 317 318 320 318 318 317 316 314 314 312 311 310 309 305
324 324 324 325 329 330 330 329 329 330 330 330 329 328 324 319 315 315 317 319 319 318 317 317 315 313 312 311 307 305 305 304
324 324 324 324 326 328 329 329 328 330 329 329 327 326 325 321 317 316 318 316 315 316 316 315 312 312 304 301 302 305 304 303
323 325 326 325 325 327 328 328 327 329 329 327 327 327 326 323 320 319 318 317 317 317 315 313 312 301 301 302 303 305 305 303
320 324 327 326 326 327 328 327 328 327 326 327 326 326 324 323 322 324 321 320 317 315 313 310 304 301 302 302 304 304 304 303
318 320 324 326 328 328 329 328 327 328 328 326 323 326 326 322 323 323 321 318 314 312 309 304 301 301 303 304 304 304 303 303
317 319 322 325 327 328 328 328 327 328 327 325 323 324 322 322 320 318 316 313 309 307 304 304 309 305 304 304 303 302 301 301
319 321 322 323 326 327 327 328 327 328 327 324 323 319 315 311 311 310 310 307 306 305 306 306 304 303 303 303 301 301 300 300
320 321 322 323 324 325 326 327 326 325 323 318 311 310 309 309 307 307 305 305 306 303 304 303 302 302 302 302 301 300 300 300
318 321 323 324 325 325 325 325 323 318 316 312 310 308 307 305 303 302 300 300 299 299 301 301 301 301 301 300 299 299 299 299
314 319 322 324 324 324 323 318 314 312 310 307 306 305 303 299 298 298 300 300 298 299 301 300 301 301 299 299 298 298 297 297
310 316 321 320 320 319 314 311 311 311 310 307 306 301 298 296 296 298 297 296 298 300 301 302 300 297 292 291 291 296 295 295
311 315 317 317 317 315 312 310 311 308 305 303 300 297 295 296 296 296 296 298 301 302 300 299 298 298 291 290 289 294 294 294
311 314 314 315 315 314 313 312 309 306 303 300 297 295 294 295 298 297 299 302 300 299 298 298 297 296 290 289 288 293 294 294

GFSFLT1_sfc_thetae_075.txt.gz
Theta_e
320 321 322 324 324 324 325 326 327 329 331 330 329 330 333 335 335 335 334 333 332 330 328 325 323 319 317 316 316 315 315 314
322 320 322 323 325 323 324 325 328 331 330 326 325 325 330 332 333 334 334 332 331 330 327 324 322 319 317 317 316 315 314 315
320 322 323 321 322 322 324 326 330 331 329 326 325 327 331 333 334 332 331 326 326 329 326 323 320 317 317 317 316 314 315 314
318 321 323 324 322 323 324 327 330 332 330 325 326 332 330 328 329 328 328 327 328 327 325 322 320 318 315 317 316 315 312 313
319 321 322 324 325 328 328 329 330 331 334 327 327 327 325 328 328 327 322 322 322 323 323 321 320 318 317 316 316 316 314 310
319 320 322 324 327 327 328 330 330 331 333 332 328 327 327 329 327 325 321 318 321 322 321 320 320 317 317 317 315 313 311 307
321 323 323 324 331 331 332 329 329 331 333 333 331 328 327 326 324 320 319 317 319 322 319 320 319 318 316 314 313 311 305 306
322 321 322 323 326 329 331 329 329 331 333 332 333 331 330 326 323 321 320 318 318 320 320 319 318 316 314 311 307 305 306 307
323 324 323 324 327 329 329 329 329 330 330 331 331 332 329 326 325 323 322 319 322 322 320 319 317 314 310 307 305 303 306 307
320 324 326 326 327 328 331 330 329 329 330 332 331 330 329 327 327 326 322 321 320 320 320 317 314 310 306 303 301 304 306 306
319 321 325 328 329 328 331 330 328 330 330 331 329 328 328 328 327 324 321 319 321 319 317 313 308 303 302 302 304 306 305 305
319 321 324 327 330 330 329 329 328 328 330 330 327 325 327 325 323 320 319 318 316 313 307 304 303 304 306 304 305 305 304 303
319 321 322 324 327 329 330 330 328 328 330 329 325 324 318 315 312 312 312 309 309 305 305 306 308 307 305 304 304 303 302 301
318 321 322 323 325 327 329 330 329 328 329 324 318 312 311 309 309 308 307 305 305 307 305 303 302 303 304 304 303 303 302 302
317 320 322 324 325 327 327 329 329 328 321 318 313 311 309 307 307 307 306 304 302 301 302 302 302 303 302 302 302 302 300 300
314 317 322 324 326 327 327 328 326 323 318 314 309 308 307 308 306 304 302 301 300 302 300 300 302 302 302 302 301 299 297 297
311 314 319 324 325 325 324 321 318 316 311 307 307 307 305 301 299 300 300 300 299 299 301 302 302 302 292 292 291 295 295 295
313 314 319 323 324 319 314 313 313 311 308 306 305 303 300 299 298 298 298 299 299 301 302 303 301 300 293 292 290 294 293 293
315 318 320 321 318 314 312 311 308 306 304 303 302 301 300 299 299 300 300 301 302 303 301 300 299 297 293 291 289 294 293 294

GFSFLT1_sfc_thetae_078.txt.gz
Theta_e
316 317 318 317 317 317 317 318 318 317 316 316 320 324 325 327 328 329 330 331 331 328 327 322 321 317 315 312 311 310 310 309
318 319 320 320 318 318 318 318 319 318 321 320 321 321 325 327 328 328 331 330 330 328 325 322 321 316 313 314 312 309 308 309
318 320 320 320 318 319 321 322 323 323 324 325 323 324 326 328 329 330 330 329 329 327 324 321 320 316 314 313 311 310 310 309
316 318 320 320 320 321 322 324 325 326 327 327 324 326 327 326 326 328 328 326 325 324 325 321 318 315 313 313 311 310 308 309
318 318 319 319 320 322 322 323 326 329 329 324 321 320 321 325 326 327 327 325 324 325 324 321 317 316 313 313 314 311 308 305
316 318 321 322 321 321 322 324 327 329 330 329 323 324 324 326 326 325 321 321 321 322 321 320 318 317 316 313 312 309 308 305
318 320 321 321 324 323 324 326 327 329 330 329 328 325 324 324 323 321 320 320 319 319 320 319 317 316 315 312 311 309 304 303
317 318 319 321 322 324 326 326 325 328 329 329 328 327 325 325 323 321 318 317 317 317 318 316 316 316 312 310 307 304 303 302
319 319 319 320 322 325 325 325 325 326 329 329 329 330 327 327 325 321 319 319 317 317 318 317 316 313 308 306 305 304 303 302
320 321 321 321 322 324 326 326 326 327 329 330 329 329 329 326 324 323 322 321 319 319 317 315 313 308 306 305 302 301 302 303
318 321 323 323 324 325 327 328 327 328 328 329 329 328 329 328 325 323 322 320 319 316 315 309 306 305 303 302 301 302 302 303
318 319 321 326 325 325 327 328 328 328 328 329 328 329 327 325 323 321 319 315 312 307 306 305 304 303 304 302 302 303 303 302
317 319 321 323 326 325 326 327 328 328 328 328 327 325 324 322 317 314 311 308 307 306 305 305 305 306 307 304 302 302 301 301
316 318 319 320 323 327 326 327 327 328 326 326 323 319 318 315 313 311 309 307 306 306 305 305 304 304 303 302 302 302 301 300
313 317 319 321 323 325 326 327 327 325 325 321 316 314 312 310 308 307 306 306 305 305 304 303 303 303 303 303 302 300 298 297
311 313 318 321 323 325 327 324 322 321 317 314 309 307 307 307 306 305 305 304 303 302 302 302 303 302 302 300 299 296 293 293
312 312 317 322 324 324 322 320 316 314 309 306 307 307 305 305 304 303 301 300 300 301 301 301 300 301 291 292 293 292 292 292
313 314 315 324 320 317 313 312 311 308 306 306 306 303 301 300 300 300 299 298 298 298 299 299 300 299 292 292 290 291 291 290
315 316 321 318 315 313 312 311 308 305 305 303 302 301 300 299 298 298 297 298 297 298 300 299 297 296 293 291 289 290 289 290

GFSFLT1_sfc_thetae_081.txt.gz
Theta_e
315 315 317 317 316 316 316 315 315 315 314 313 314 314 319 322 321 324 323 324 326 326 324 319 319 314 311 309 306 307 305 305
315 315 315 316 316 315 315 314 314 313 311 309 311 312 319 320 322 325 325 325 326 325 321 319 316 312 309 309 306 305 304 305
313 313 314 314 313 314 315 314 314 313 312 311 314 317 319 322 324 324 325 325 325 324 319 318 317 312 309 308 307 306 306 305
312 314 314 313 312 313 314 315 315 315 316 317 319 318 320 321 322 323 325 325 324 324 321 318 316 312 308 307 307 307 304 305
314 315 314 313 313 315 314 315 315 317 320 320 319 317 318 320 320 321 323 322 322 322 322 319 316 312 310 309 310 307 305 303
313 315 316 316 314 315 316 319 320 321 322 322 321 316 320 320 321 321 320 320 320 321 320 317 315 311 310 311 309 307 305 301
314 315 317 317 316 317 318 319 321 323 324 324 321 318 320 320 321 320 318 316 316 318 319 317 314 313 311 311 308 305 303 302
314 314 315 316 316 317 318 317 318 324 324 324 324 321 320 320 320 320 316 316 315 316 317 315 315 314 311 310 308 304 302 300
314 315 316 317 317 316 316 317 317 322 324 324 325 322 322 321 322 321 319 317 316 315 315 314 314 312 310 308 306 303 303 301
314 315 317 318 318 318 317 318 320 322 323 325 325 325 322 322 322 321 318 317 316 314 315 314 310 308 308 305 304 302 302 302
314 315 316 318 319 320 321 322 322 322 322 325 325 325 324 322 321 319 318 317 317 315 312 308 306 304 303 302 301 302 302 301
310 316 317 318 319 320 321 321 321 322 322 326 326 325 323 322 321 319 318 317 314 311 306 304 304 305 304 303 302 302 302 301
309 310 313 318 318 319 320 322 322 323 324 324 326 325 323 322 321 319 315 310 308 306 306 306 306 304 304 303 302 303 302 300
308 310 311 318 319 319 320 322 323 324 322 323 322 322 320 318 315 313 311 308 307 307 306 305 305 305 305 304 303 302 301 300
306 309 311 313 318 320 321 322 323 323 324 319 317 316 315 313 310 309 309 307 306 306 306 305 305 305 304 303 302 300 299 297
304 309 310 312 315 319 321 320 319 317 316 315 312 310 310 308 308 307 306 307 306 305 304 303 304 303 303 301 301 296 291 290
306 307 312 315 318 318 317 315 311 311 309 307 307 307 307 306 305 305 304 302 303 303 303 303 301 302 296 294 292 290 290 289
308 310 317 317 314 312 309 308 309 307 306 306 306 305 303 302 302 301 301 301 301 301 301 300 299 298 291 291 290 289 288 287
309 315 312 310 309 308 307 306 306 305 304 304 303 301 300 301 301 300 299 299 299 299 298 298 297 293 291 290 289 288 287 288

GFSFLT1_sfc_thetae_084.txt.gz
Theta_e
315 316 317 316 316 316 315 316 315 316 317 317 316 316 317 319 320 322 321 321 324 321 320 318 315 311 308 306 305 304 303 302
315 316 317 316 316 315 315 315 315 314 314 313 313 312 315 318 319 320 320 319 322 322 321 317 315 312 309 307 304 304 302 303
313 311 314 315 315 314 314 314 312 312 312 313 313 312 314 316 319 320 322 323 323 324 320 319 316 312 308 307 305 304 303 303
310 311 311 311 312 312 312 312 312 311 311 309 312 313 315 316 317 318 320 322 323 324 320 319 316 313 309 307 305 305 303 303
310 311 312 310 311 312 313 313 312 312 312 310 310 310 311 315 317 318 320 322 323 324 322 318 316 312 308 307 308 305 304 302
310 311 313 312 312 312 313 313 313 313 313 312 312 314 316 316 317 318 320 320 322 322 321 318 315 312 309 308 307 307 305 303
312 313 315 313 313 312 313 312 313 313 314 315 315 315 316 317 319 319 319 320 320 319 321 317 315 312 311 311 309 306 304 302
311 313 313 314 312 312 312 312 313 314 315 316 317 319 317 317 319 319 318 317 317 318 318 315 313 313 310 311 310 306 304 301
312 313 314 314 313 311 312 313 314 317 318 318 320 321 319 320 320 321 319 319 319 320 318 315 313 312 311 309 305 304 303 303
312 313 314 315 315 311 312 314 316 318 320 321 322 323 321 319 320 321 321 321 320 316 317 314 311 309 307 306 304 303 303 302
313 313 314 315 317 316 315 316 316 317 319 322 323 323 322 321 320 320 320 319 317 315 315 311 306 305 305 304 303 302 303 302
312 314 315 316 317 317 317 317 317 317 317 320 322 323 323 322 320 320 319 317 316 315 312 308 306 306 306 306 304 303 302 301
313 314 315 315 317 318 318 317 317 318 320 320 321 322 323 321 320 319 317 315 314 311 309 307 306 306 306 304 303 302 301 301
309 312 313 314 316 317 318 319 319 321 321 320 321 321 320 319 320 318 317 313 310 309 308 307 306 305 305 304 304 303 302 302
305 306 310 314 315 316 317 318 320 320 320 320 320 320 320 320 317 317 315 312 309 308 309 307 306 306 305 305 304 302 302 301
302 306 307 313 314 316 317 318 319 320 320 317 316 315 317 315 313 313 310 309 308 308 306 306 306 306 305 304 303 301 298 295
303 306 308 310 314 314 315 313 314 316 315 312 309 308 309 309 308 307 307 306 306 305 304 304 303 304 296 297 297 296 293 290
304 307 310 315 314 313 312 310 310 310 308 307 307 306 304 304 304 304 303 303 303 303 303 302 301 300 294 293 290 290 289 287
313 311 308 307 307 308 309 309 308 307 306 305 305 304 302 302 302 302 301 302 301 301 300 300 299 295 290 290 289 286 287 288

GFSFLT1_sfc_thetae_087.txt.gz
Theta_e
315 316 316 317 317 316 316 316 316 317 316 316 316 317 318 320 321 322 323 324 323 319 316 315 314 312 309 306 303 302 301 300
315 316 316 315 315 315 315 314 316 316 315 314 314 314 316 317 319 321 320 322 323 319 317 315 313 312 310 305 303 302 301 301
313 315 314 314 314 314 314 315 315 315 314 313 313 314 315 316 319 319 321 319 321 321 318 316 313 310 307 305 304 302 302 302
311 312 313 314 313 313 314 314 313 314 314 313 312 313 314 314 317 317 318 320 320 322 321 319 316 313 309 306 304 304 302 301
310 310 310 311 313 312 312 312 312 310 310 310 310 309 309 312 312 317 315 319 319 321 321 319 315 312 308 307 306 304 303 301
309 309 310 311 312 311 311 311 311 311 310 309 308 308 308 312 314 315 315 318 321 321 321 318 316 313 311 308 306 306 307 304
309 310 311 310 311 310 310 311 311 311 310 310 308 309 311 312 314 314 315 316 318 319 320 317 317 314 310 309 309 309 308 306
309 308 309 310 309 310 311 311 311 312 310 310 310 310 312 313 314 315 315 315 315 317 317 316 315 314 312 311 310 308 307 304
309 310 310 312 311 310 310 311 311 312 311 311 311 312 313 315 315 316 317 317 318 318 317 318 316 313 311 308 307 306 305 304
309 310 312 312 313 312 311 311 311 312 312 312 312 313 314 315 317 318 318 319 319 318 318 317 314 312 310 307 305 305 304 304
310 310 312 314 314 314 313 312 312 312 313 313 313 314 316 317 318 318 319 320 319 317 315 315 312 309 308 307 306 305 304 303
311 312 313 314 315 314 313 312 312 312 314 315 316 317 319 320 320 319 319 319 316 315 314 314 310 308 307 307 305 305 304 303
311 312 313 313 314 315 313 312 312 314 316 317 317 319 320 320 320 320 319 317 316 315 313 311 310 308 307 307 304 304 304 302
309 311 312 313 313 314 316 315 313 315 316 317 316 316 319 319 320 317 316 317 315 313 313 311 309 308 307 307 306 305 304 303
307 308 311 313 314 315 315 316 316 316 316 316 316 316 318 319 319 316 317 316 316 314 312 310 309 308 307 305 305 303 303 302
303 306 309 311 311 313 315 317 317 317 316 315 316 317 317 316 316 317 317 318 317 313 311 309 309 307 306 305 305 303 302 300
301 304 305 308 310 311 313 314 315 316 316 316 312 312 314 314 313 313 310 309 309 310 309 307 305 306 297 297 300 300 298 295
301 300 305 307 309 310 309 309 310 311 311 309 308 309 307 306 307 307 306 306 306 306 305 305 304 304 298 296 293 295 293 290
307 309 308 307 310 309 309 310 308 308 307 306 306 306 305 305 304 304 303 304 303 303 302 303 300 299 293 292 290 290 288 288

GFSFLT1_sfc_thetae_090.txt.gz
Theta_e
315 316 317 317 316 316 316 317 317 317 318 319 319 319 321 322 321 321 322 321 320 318 315 315 315 312 309 306 303 302 301 300
315 316 316 316 315 315 315 316 316 317 317 317 316 316 317 317 321 321 322 322 320 318 316 315 313 313 310 306 303 303 301 301
313 314 314 314 314 315 314 315 315 315 317 317 316 316 315 317 319 320 321 323 322 319 317 315 313 311 308 306 304 302 302 302
310 313 313 313 313 313 314 314 315 315 315 314 314 314 314 314 316 317 318 319 321 321 318 316 314 312 310 306 305 304 301 301
309 311 312 313 313 314 315 314 315 315 314 312 313 313 310 311 313 316 316 319 318 320 319 317 315 312 309 308 307 306 304 301
307 311 312 313 314 313 314 314 313 313 312 312 309 310 311 311 313 314 314 316 318 318 319 317 315 315 313 310 308 306 306 304
308 310 311 311 313 313 311 312 311 310 309 308 308 307 307 308 309 311 311 312 314 316 319 318 319 316 313 311 310 308 307 306
307 307 309 309 310 311 311 311 310 310 309 309 308 308 308 308 309 311 311 312 313 314 315 315 315 315 313 312 309 310 308 306
307 308 309 309 309 310 310 310 310 310 310 309 309 309 309 310 310 311 312 314 314 314 315 317 316 315 314 312 312 310 309 308
307 309 309 310 310 310 310 310 310 310 310 310 309 309 309 309 310 312 314 314 316 314 314 315 316 315 314 312 311 308 307 306
307 308 309 311 312 311 310 311 310 311 311 311 310 309 310 311 310 312 314 315 315 315 314 316 315 312 310 310 309 308 307 306
307 309 310 311 313 313 311 311 311 310 311 311 311 310 311 311 312 313 315 315 316 316 316 315 313 310 309 309 307 307 306 306
308 308 309 310 311 312 312 312 311 312 313 313 312 312 312 312 313 314 315 315 316 316 316 315 315 311 309 309 308 308 306 305
305 308 309 310 312 312 312 312 312 312 313 312 312 313 314 314 315 316 317 317 317 315 317 316 315 313 311 311 312 309 307 307
305 306 309 311 312 313 313 313 312 312 311 311 311 313 314 315 317 317 318 317 318 316 315 315 314 312 311 310 309 308 307 307
303 305 307 310 311 312 313 314 314 312 311 310 311 312 313 313 315 315 315 317 318 318 317 315 312 311 309 308 307 306 305 303
300 303 306 307 310 311 312 313 313 314 313 311 312 312 312 311 313 314 316 317 316 316 311 311 309 309 301 298 303 304 303 299
300 300 303 304 306 307 307 308 310 311 312 310 309 309 311 312 312 312 312 312 310 309 309 309 308 308 296 297 296 301 299 294
300 302 304 306 308 308 309 310 309 309 308 308 308 308 307 307 308 308 305 305 305 303 303 302 300 296 292 292 291 292 290 289

GFSFLT1_sfc_thetae_093.txt.gz
Theta_e
316 318 319 318 318 317 318 318 319 319 321 321 323 323 323 324 325 324 325 326 325 323 322 322 321 317 314 312 312 311 311 310
316 317 317 317 317 317 317 316 318 318 318 318 319 319 321 321 322 323 324 325 324 323 322 322 321 318 316 314 312 311 309 310
314 314 316 315 315 317 317 316 317 318 319 319 319 319 320 321 322 323 323 324 323 321 321 321 321 319 317 314 313 310 310 311
313 314 314 315 315 316 316 316 316 318 319 318 316 316 316 320 321 321 324 324 321 322 322 321 321 320 318 315 313 312 310 309
313 314 314 314 316 316 316 317 316 316 317 317 317 315 315 317 320 320 320 323 322 322 321 321 321 321 319 318 317 315 314 309
312 314 316 316 317 316 316 316 316 316 317 317 316 314 316 314 317 320 318 319 319 320 322 321 323 321 322 320 317 315 316 315
313 315 316 315 316 316 316 315 314 315 314 316 317 315 315 313 314 315 317 318 320 320 320 322 324 324 322 320 320 317 316 315
312 312 313 313 313 315 315 315 314 313 313 314 314 315 316 316 316 317 316 317 318 320 322 323 324 324 324 323 321 318 317 316
312 313 313 313 313 313 314 314 315 315 314 314 315 315 315 316 317 317 318 319 319 321 322 323 324 324 324 323 322 320 319 314
313 313 313 313 312 312 312 313 313 314 315 315 314 315 315 314 316 317 317 318 319 321 322 322 322 323 323 323 322 321 320 319
312 313 314 314 315 313 312 313 312 314 316 316 315 315 315 316 316 316 317 319 320 320 321 321 322 322 322 321 321 321 317 317
311 313 314 315 316 316 314 313 315 315 316 316 316 315 315 316 316 317 318 319 319 319 320 321 321 322 320 319 318 317 311 311
312 313 314 314 315 315 315 315 315 316 317 316 316 317 315 316 316 317 319 318 321 321 320 320 321 320 317 313 312 313 310 310
312 313 313 314 315 315 316 316 316 317 316 316 316 316 315 314 316 317 318 318 319 319 320 320 319 318 315 317 316 314 311 310
311 313 314 314 315 316 316 316 317 317 316 316 316 316 316 316 317 318 319 319 318 320 321 320 320 320 318 317 314 313 312 313
308 311 313 315 315 316 317 317 317 317 316 316 316 317 318 318 319 319 320 321 321 322 322 321 320 319 316 314 313 313 312 310
306 309 312 313 315 316 316 317 317 317 315 315 316 316 316 317 318 319 320 321 322 321 319 318 317 315 304 299 305 309 309 307
305 305 309 312 314 315 316 316 318 317 315 315 315 315 315 316 317 318 318 319 320 318 317 315 312 308 298 297 294 302 299 295
305 304 307 310 311 312 313 314 316 316 316 314 314 314 313 313 315 315 312 308 306 304 301 300 296 292 291 292 291 292 290 289

GFSFLT1_sfc_thetae_096.txt.gz
Theta_e
322 322 324 323 323 321 322 325 323 322 323 324 324 326 327 328 327 328 328 326 327 327 326 326 324 322 321 321 320 321 320 318
322 322 323 320 322 321 319 320 322 322 321 320 321 320 323 324 325 326 326 325 326 328 325 325 325 322 322 321 320 319 318 317
320 320 322 321 320 321 319 319 320 321 321 320 321 322 322 323 324 324 325 326 327 326 325 325 325 323 322 321 320 317 317 315
319 318 318 320 318 320 320 320 319 320 321 319 318 319 321 321 322 322 323 325 327 327 325 325 326 325 322 322 319 319 315 313
320 320 317 317 318 323 323 321 319 320 321 320 318 317 315 319 322 323 324 324 323 325 326 326 326 325 324 322 320 320 319 314
319 320 319 318 319 320 321 322 319 319 321 320 318 317 317 320 321 324 324 323 324 322 323 322 324 325 324 325 322 322 321 319
321 321 321 321 321 321 320 320 318 318 321 322 319 319 316 317 318 319 323 323 326 324 323 323 324 325 325 326 327 325 323 322
320 319 319 321 320 320 320 319 317 320 322 320 319 321 320 317 318 319 321 320 320 321 323 323 323 325 326 327 327 326 326 323
320 320 320 320 321 319 319 319 319 318 316 318 320 322 319 320 322 321 321 320 321 324 324 323 323 322 327 328 328 327 327 326
320 321 321 320 321 320 319 320 318 319 319 318 318 321 319 320 322 322 321 322 322 324 325 325 325 325 326 327 326 326 327 326
320 321 321 321 321 322 321 321 320 321 320 321 320 320 321 321 322 321 322 322 322 322 323 324 324 324 325 325 325 325 324 326
319 321 322 322 321 321 319 319 320 320 322 322 322 321 321 322 321 321 321 322 322 322 322 323 323 323 324 325 324 324 323 324
318 320 321 321 321 321 319 316 318 320 321 322 322 323 322 322 322 321 322 321 323 322 323 322 322 322 324 325 323 322 322 321
318 319 320 321 321 321 321 320 320 321 321 322 322 322 322 321 321 321 322 322 322 322 322 322 322 323 323 324 323 320 318 319
317 318 319 320 321 321 321 321 322 322 322 321 321 321 322 322 322 322 323 322 321 321 322 322 322 322 322 322 321 321 323 323
313 317 319 320 321 322 322 323 323 323 322 321 321 322 323 322 322 322 322 322 322 321 322 322 323 324 324 324 322 320 317 315
313 314 317 320 321 321 322 323 323 323 322 321 322 322 322 322 322 322 322 322 323 323 323 324 323 321 304 300 306 315 311 308
313 313 314 318 320 321 322 323 324 323 322 322 322 322 321 321 321 321 320 321 322 320 318 315 303 296 292 297 294 301 296 293
312 314 313 314 320 322 323 323 323 322 322 321 321 320 320 320 320 319 317 310 306 301 297 295 292 290 290 291 290 290 288 287

GFSFLT1_sfc_thetae_099.txt.gz
Theta_e
326 327 328 326 327 326 326 324 326 325 325 328 326 326 329 329 331 329 328 326 326 324 324 326 329 328 328 326 325 323 322 320
326 326 327 326 324 324 322 324 324 325 322 323 323 323 325 327 329 328 326 325 325 325 322 327 327 324 323 324 325 325 321 323
324 325 325 324 322 324 320 322 323 323 323 322 322 322 325 326 327 326 325 324 324 324 324 326 325 323 324 325 326 321 321 321
322 323 324 325 321 322 323 322 323 322 321 322 321 321 322 322 323 323 323 322 322 322 324 325 325 325 323 325 326 323 318 318
323 323 322 324 323 325 325 323 322 321 322 320 321 318 317 319 321 322 323 323 322 323 324 325 326 327 324 324 324 324 323 316
322 323 323 324 325 323 323 323 322 323 322 323 319 318 319 320 321 321 322 323 323 324 325 327 328 326 328 327 326 324 323 322
322 324 324 323 324 322 321 320 320 321 321 322 320 318 318 320 319 318 319 321 322 323 323 326 327 328 327 326 326 324 324 325
322 322 322 323 322 321 322 320 318 320 320 320 319 318 318 318 320 320 319 319 320 320 321 322 324 327 326 327 325 326 326 324
322 323 323 323 324 324 322 320 319 320 321 322 322 322 319 317 321 322 320 321 324 322 320 320 321 324 323 326 328 325 326 327
321 323 324 323 324 324 324 323 322 321 321 323 323 323 321 320 320 321 323 324 324 325 325 323 323 323 324 322 324 324 326 327
321 322 324 324 324 325 325 324 323 323 322 322 321 322 323 323 324 324 325 325 324 324 325 324 324 324 324 325 325 326 325 326
320 322 324 325 325 324 324 324 323 323 323 323 323 323 323 323 324 325 324 325 325 324 324 324 325 325 326 326 326 325 324 325
320 322 324 324 323 323 323 324 323 324 324 323 323 323 323 322 323 324 326 325 326 325 324 322 323 324 325 325 325 324 324 324
319 322 322 323 323 323 323 323 323 323 323 324 324 324 324 323 323 325 325 325 324 324 324 324 324 325 325 325 325 325 325 325
318 320 322 323 324 324 323 323 323 323 322 322 323 324 324 324 325 325 326 326 324 323 325 325 326 323 323 324 323 324 324 324
316 319 321 323 324 324 324 325 324 323 322 322 322 324 325 325 324 325 324 324 324 324 323 323 323 323 322 323 322 320 320 319
314 317 319 321 322 324 324 325 325 325 323 323 323 324 324 324 324 324 323 323 323 323 322 322 322 309 292 295 303 311 302 299
313 315 317 320 323 323 324 325 326 325 324 324 324 324 323 323 323 322 322 322 321 307 301 298 294 293 291 292 292 292 290 289
314 315 316 318 323 324 325 325 325 324 324 323 324 324 323 323 321 312 303 299 295 293 291 290 288 289 289 288 288 287 286 285

GFSFLT1_sfc_thetae_102.txt.gz
Theta_e
325 326 328 327 329 327 326 326 328 328 327 327 328 330 331 332 330 328 328 328 326 324 325 327 327 327 326 324 321 320 316 314
326 326 327 326 326 324 323 324 325 325 323 323 323 323 325 328 330 327 327 326 325 322 322 323 323 324 323 324 321 317 317 319
324 325 326 324 322 322 322 324 323 324 324 323 323 323 324 326 329 327 327 325 324 320 321 321 321 321 322 321 318 317 318 318
322 323 324 323 321 321 321 322 323 324 324 323 322 324 324 324 325 325 325 324 323 322 322 322 320 320 320 319 320 318 315 315
322 322 323 322 321 322 323 322 322 323 323 323 320 319 318 321 324 324 323 324 322 322 323 322 321 321 319 320 321 319 317 312
321 322 323 324 322 321 322 323 322 322 322 323 321 318 319 320 321 320 321 321 320 320 321 322 321 321 321 320 319 319 319 315
321 323 323 323 324 321 321 321 320 322 321 322 321 319 319 318 319 318 318 318 319 319 319 321 321 321 321 321 321 319 319 318
320 321 320 321 321 320 320 319 318 321 320 322 320 319 320 318 319 319 317 317 317 318 319 320 320 320 321 322 321 320 319 319
319 321 321 321 321 320 319 319 318 319 320 320 320 319 320 319 319 319 319 318 318 320 320 321 321 321 321 321 321 322 321 320
319 322 322 321 321 320 321 319 318 319 320 320 320 319 319 319 320 320 319 320 321 321 320 320 320 320 320 320 320 320 320 319
319 321 322 323 323 323 321 322 320 319 321 321 320 320 319 318 321 320 319 320 321 320 319 319 318 318 319 319 319 318 318 318
319 321 323 323 324 323 322 321 321 320 321 321 321 320 320 319 318 320 321 321 321 321 321 320 319 319 319 318 317 317 317 318
319 321 323 322 322 322 322 322 322 321 322 321 320 320 321 320 319 317 320 321 321 320 321 320 320 319 319 318 318 319 319 318
318 320 322 322 322 322 322 322 322 322 322 322 321 320 321 320 320 321 322 321 321 320 321 319 319 320 319 319 319 319 318 319
317 319 321 322 322 322 322 322 322 322 322 321 321 321 321 321 320 321 321 322 321 320 320 320 320 320 320 320 319 319 319 319
313 318 320 322 322 323 323 323 322 322 321 321 321 322 323 323 322 322 322 322 321 321 321 321 321 320 312 307 316 317 309 299
310 316 319 321 323 323 323 323 321 322 320 320 322 323 323 322 322 322 322 321 322 321 318 308 300 297 292 294 301 297 295 294
309 313 316 320 322 324 323 324 323 321 320 321 321 322 322 321 322 321 320 315 303 297 295 293 290 290 290 290 291 290 288 288
310 314 315 317 322 323 324 324 324 322 322 322 322 322 321 322 316 301 297 294 292 290 289 289 288 287 288 288 287 286 285 285

GFSFLT1_sfc_thetae_105.txt.gz
Theta_e
319 320 322 323 322 322 321 323 322 324 321 324 326 329 330 328 328 330 330 329 328 326 327 326 327 323 325 322 319 317 314 313
320 321 321 321 321 320 321 323 324 320 318 318 318 322 327 328 327 327 328 327 327 326 326 325 327 324 324 322 319 314 311 310
319 319 319 320 319 319 321 322 323 320 319 320 320 319 321 329 328 327 327 326 325 323 324 323 325 324 322 320 317 314 312 313
318 319 318 318 316 317 320 322 321 319 322 322 319 319 321 322 326 325 326 326 325 322 322 321 324 323 320 318 317 314 312 312
318 318 317 316 315 318 320 321 322 322 322 320 319 318 317 321 321 325 324 325 324 320 322 321 321 323 320 318 318 316 313 310
317 318 317 317 317 317 321 321 321 321 321 321 319 319 319 322 323 323 323 324 323 320 322 321 320 320 319 318 318 318 315 313
318 319 319 317 317 317 320 320 320 320 320 320 319 318 319 319 322 320 321 321 321 320 321 320 320 320 319 319 318 318 317 315
316 317 317 316 315 316 319 319 318 319 319 319 317 317 319 318 319 319 318 318 318 319 320 320 320 320 320 319 318 318 318 317
316 317 317 316 316 316 319 317 317 319 319 319 317 318 318 319 318 318 318 318 318 318 318 319 320 320 319 319 318 318 318 318
316 316 317 317 316 316 316 316 317 319 319 318 315 317 318 318 319 318 318 318 319 317 316 317 319 320 319 318 318 317 318 318
316 315 316 318 317 317 316 317 317 318 318 318 317 317 319 319 319 318 318 318 318 317 316 316 318 319 319 319 318 318 317 318
316 316 317 318 318 317 316 316 315 317 318 317 317 316 318 318 319 318 318 319 318 318 317 317 318 318 319 318 318 317 316 316
316 317 317 317 317 317 317 316 316 316 319 319 317 317 316 315 318 318 319 318 319 319 319 318 318 317 317 316 315 317 315 314
315 317 317 318 318 317 317 317 317 317 319 320 319 318 316 314 315 317 317 318 318 320 319 318 317 318 317 316 316 316 315 315
310 315 317 318 318 319 318 318 318 318 319 317 317 317 317 316 316 315 315 318 318 317 319 319 319 318 318 317 318 317 317 307
306 310 313 317 318 318 319 319 318 319 318 317 317 317 316 317 316 316 318 318 318 318 317 319 318 314 307 310 314 311 300 295
305 305 312 316 318 318 319 319 319 319 318 318 318 318 318 317 316 316 316 316 317 312 301 300 297 294 291 295 299 295 293 291
309 306 307 313 319 320 319 319 320 318 318 318 319 319 318 318 318 318 317 304 298 295 292 291 289 289 290 290 290 290 288 288
310 311 311 312 320 320 319 320 318 318 317 318 319 319 319 318 310 299 295 293 291 289 288 288 287 287 288 288 288 286 285 284

GFSFLT1_sfc_thetae_108.txt.gz
Theta_e
317 320 321 322 322 322 321 321 322 323 322 327 328 324 326 329 330 329 331 331 329 325 320 320 319 319 314 318 317 316 315 312
318 321 320 320 320 320 319 319 319 319 317 321 324 323 325 325 328 329 330 330 329 327 322 322 320 320 315 319 319 315 310 311
318 319 319 319 319 319 318 320 320 319 318 318 321 322 326 326 327 329 329 328 328 328 325 323 321 319 320 319 317 312 311 310
316 318 317 317 317 317 318 320 322 321 318 318 316 319 322 324 324 325 327 327 327 327 326 324 324 322 321 320 317 315 312 310
317 317 316 317 317 317 318 320 321 321 319 318 317 314 317 320 325 325 327 326 325 326 326 326 326 324 322 321 318 315 313 310
316 317 317 317 315 316 318 320 320 322 321 320 319 318 318 317 321 323 325 325 325 323 323 324 325 324 322 319 317 317 314 312
317 318 317 315 316 316 317 319 320 320 320 320 319 318 319 319 320 320 322 324 323 321 321 322 324 323 320 319 318 317 316 315
316 315 315 314 314 315 316 318 317 319 319 320 319 319 320 319 321 321 321 322 321 319 320 320 320 322 321 320 319 317 317 316
316 316 315 314 315 315 317 317 317 318 318 319 319 317 319 318 321 321 321 321 321 320 320 320 320 320 320 320 318 317 317 316
315 316 315 315 315 315 316 316 317 318 319 319 318 318 316 318 318 320 319 320 321 320 320 319 320 319 319 318 317 316 316 316
316 316 315 316 315 316 315 316 317 318 319 319 318 317 317 317 317 317 318 319 319 318 319 319 319 319 319 318 316 317 316 317
315 316 317 316 316 315 315 315 315 317 318 318 317 316 317 318 317 317 316 318 318 317 317 317 317 318 319 318 317 317 316 315
312 315 317 315 315 315 314 314 314 316 317 318 317 316 317 318 318 317 317 316 317 317 316 316 316 317 317 317 316 317 316 315
310 315 315 315 315 315 314 315 314 315 317 317 317 315 315 316 316 316 317 316 316 317 316 315 315 316 316 316 316 315 314 315
309 315 316 316 316 315 315 315 315 316 317 318 315 314 314 314 316 316 316 317 317 316 316 316 316 316 316 315 315 314 314 305
308 312 314 316 316 316 316 316 316 316 316 316 317 316 315 313 314 314 315 316 317 318 317 316 316 316 313 315 315 313 298 293
309 310 312 317 318 317 317 317 316 317 316 315 316 317 316 314 313 313 313 314 315 310 306 300 296 296 292 295 299 295 293 290
308 308 307 307 318 319 318 317 317 317 316 316 316 316 315 315 315 314 311 301 297 294 293 292 290 290 291 291 291 290 288 287
306 305 304 303 304 318 319 319 318 317 316 316 317 316 315 315 309 299 296 294 291 289 288 288 287 287 288 288 287 286 284 284

GFSFLT1_sfc_thetae_111.txt.gz
Theta_e
305 312 320 323 324 323 322 323 322 321 325 327 325 322 326 326 327 325 325 328 327 324 320 317 316 312 310 312 313 312 311 313
305 318 319 319 321 321 321 321 320 321 321 322 322 322 325 325 327 327 327 328 326 322 319 317 315 311 310 313 313 312 309 311
313 315 318 319 320 320 320 321 319 318 319 321 323 323 325 326 327 328 328 328 326 323 319 317 315 312 311 314 315 310 310 311
311 316 316 318 318 318 319 319 320 317 317 317 319 322 324 323 324 326 328 328 327 325 320 319 316 315 312 316 316 315 311 308
313 316 315 316 318 318 318 319 318 317 317 316 318 320 320 322 323 326 327 328 328 327 322 320 317 317 314 316 318 316 312 309
313 316 317 317 317 317 317 318 319 320 318 317 315 313 317 321 324 323 325 326 327 327 325 322 320 319 319 317 318 314 314 312
309 316 317 316 315 315 316 317 319 321 320 316 315 313 314 315 319 321 323 325 325 326 326 324 323 322 321 320 318 315 314 312
306 313 315 315 314 314 316 317 317 319 320 318 317 317 318 316 316 318 319 323 323 324 324 324 324 324 321 318 317 316 315 313
311 314 315 314 314 314 316 316 318 319 319 319 319 319 319 320 319 319 321 321 323 322 322 323 324 321 319 319 318 317 317 316
309 315 315 315 314 314 315 315 317 318 318 318 319 319 319 319 320 322 322 323 322 321 321 321 322 321 320 319 318 317 317 317
307 315 314 315 315 315 315 316 317 316 318 318 317 318 318 318 319 319 320 321 321 320 320 320 321 320 320 320 318 317 316 316
307 311 315 315 315 315 315 315 315 315 318 319 316 317 317 316 316 318 319 319 320 319 319 319 319 318 319 318 317 317 315 315
307 308 315 313 314 315 314 314 315 315 317 318 317 317 317 316 315 315 318 317 318 318 318 318 318 317 317 316 315 316 315 314
306 308 314 315 315 315 315 313 314 314 316 317 317 317 317 316 316 316 316 317 317 317 317 316 316 317 317 317 316 315 315 315
309 310 314 315 315 315 315 315 313 314 314 316 316 316 316 316 316 315 314 315 316 316 316 316 316 317 317 316 316 314 310 301
308 308 313 315 316 316 316 315 313 314 314 314 314 316 315 315 314 315 316 315 315 315 315 315 315 315 313 313 313 309 297 292
307 306 307 308 311 316 316 315 314 314 313 315 315 315 313 313 313 313 315 315 314 313 309 305 301 299 293 298 301 297 293 290
305 304 304 304 305 308 317 317 317 314 314 314 316 314 312 311 312 312 311 304 301 297 295 294 291 292 292 293 292 291 289 288
303 301 301 301 302 305 313 318 316 316 314 314 314 314 312 312 309 302 296 295 293 291 289 289 288 289 289 289 287 286 285 285

GFSFLT1_sfc_thetae_114.txt.gz
Theta_e
302 303 305 309 320 322 323 324 323 321 320 324 324 322 322 324 326 325 325 326 327 328 325 319 318 314 313 314 311 311 311 313
302 306 313 317 321 321 322 322 321 322 323 323 323 321 322 325 325 326 325 325 326 325 320 318 316 313 312 312 312 311 309 311
302 305 313 316 320 320 321 321 321 323 324 324 323 322 324 325 325 325 325 326 324 322 320 318 315 312 310 311 312 309 309 312
300 303 312 314 317 319 320 320 322 322 322 323 323 322 323 323 324 323 325 325 323 321 319 317 315 311 310 311 312 312 309 308
301 302 311 313 317 316 319 320 321 318 319 321 321 320 319 322 322 325 324 326 324 321 319 318 315 311 310 311 313 313 311 308
304 306 313 314 316 315 318 320 320 318 318 319 320 319 320 322 324 323 325 326 325 322 320 318 315 314 311 312 314 314 312 312
306 308 312 313 315 315 318 318 319 318 317 314 315 314 318 321 322 322 323 325 326 325 321 319 317 315 313 313 316 314 313 314
304 306 312 314 316 315 317 318 318 318 317 316 313 313 317 319 321 322 322 323 324 324 324 321 319 317 318 315 317 315 313 312
305 307 310 315 316 315 317 317 317 317 317 317 316 314 315 314 316 319 321 323 324 325 325 323 321 319 320 318 317 316 314 313
304 306 308 313 315 315 316 317 317 316 316 319 319 319 319 318 317 316 317 320 322 324 325 325 323 322 320 319 317 316 315 314
304 306 308 309 315 316 316 317 317 317 317 318 318 319 319 319 317 319 319 321 322 322 322 324 324 322 320 319 317 317 316 315
304 306 308 310 316 316 316 316 317 317 317 318 318 318 318 318 318 319 320 320 321 321 321 322 321 320 320 319 318 318 316 316
306 309 310 312 314 315 315 316 316 316 314 318 318 318 317 316 317 318 318 318 319 320 320 320 320 320 320 319 317 317 316 315
304 309 308 313 314 315 315 315 315 315 314 317 316 317 317 316 316 316 317 317 317 318 318 318 318 319 319 318 318 317 316 315
304 307 308 310 315 315 315 315 316 315 314 317 316 317 317 317 316 316 316 317 316 316 317 317 317 317 317 317 316 315 309 302
302 306 306 306 309 316 316 315 314 314 313 314 315 316 317 316 315 315 315 316 316 316 316 316 316 316 316 316 313 303 295 292
304 306 305 304 305 306 316 315 314 314 313 313 314 315 315 315 315 315 315 315 315 314 311 309 305 303 297 299 301 297 293 290
303 303 302 302 302 303 305 315 314 313 313 314 314 314 313 314 314 314 313 305 303 300 298 298 295 296 294 294 293 293 290 288
299 299 299 299 300 301 303 307 315 313 313 314 315 314 312 312 311 302 298 296 294 292 290 290 289 290 291 290 289 288 287 286

GFSFLT1_sfc_thetae_117.txt.gz
Theta_e
308 309 312 312 315 317 326 330 331 332 331 329 327 326 325 325 325 327 328 330 330 329 328 325 323 321 321 322 322 322 322 322
308 309 311 313 322 324 327 328 329 329 326 324 323 322 322 324 326 327 329 328 328 328 328 323 322 319 322 324 322 320 320 322
308 311 311 316 322 326 327 328 326 329 328 327 327 325 325 325 328 328 328 328 326 327 326 322 321 319 319 320 321 319 320 321
310 312 314 316 320 324 326 327 325 329 330 328 328 326 325 325 326 326 326 325 326 324 323 322 319 317 316 320 321 320 316 319
310 311 312 317 319 325 326 326 325 326 328 327 325 323 320 323 325 325 325 324 322 322 322 319 317 317 316 320 319 319 318 317
309 310 312 317 321 324 326 326 324 323 325 326 326 322 323 328 327 324 326 325 322 321 320 318 315 315 318 318 320 321 322 320
310 312 313 315 322 322 323 323 321 321 323 324 324 322 322 324 325 323 325 325 323 322 319 317 315 315 316 317 318 320 321 322
308 309 311 313 318 318 320 321 319 320 321 322 323 323 326 325 324 325 322 324 325 322 321 318 317 317 316 317 318 319 320 320
307 309 311 312 314 319 318 318 318 319 321 322 325 326 325 325 325 326 325 324 324 325 323 323 319 318 315 317 319 319 320 321
308 310 311 314 314 316 317 318 319 319 320 322 323 323 321 321 321 323 325 325 326 325 324 323 323 318 319 319 320 319 321 320
308 311 313 314 318 317 320 318 318 319 321 323 324 324 323 322 322 322 322 323 324 324 325 324 322 320 319 318 318 320 318 318
307 309 312 312 316 320 318 318 318 318 321 323 323 321 321 321 321 322 324 324 325 324 324 324 322 320 319 318 318 317 315 315
307 309 310 310 308 316 317 317 317 318 321 322 322 321 320 319 320 321 323 322 323 323 322 322 322 322 320 318 316 316 315 314
305 306 306 308 308 308 316 316 317 317 319 321 320 320 319 319 320 320 321 321 320 320 320 320 320 322 320 319 317 316 316 315
305 306 306 307 308 307 310 316 317 317 318 319 319 319 318 318 319 318 320 320 317 318 318 318 319 319 319 319 318 317 316 316
305 306 307 307 306 305 306 314 316 316 316 318 319 319 319 318 317 318 318 318 318 318 317 316 317 317 317 317 313 303 298 294
306 306 305 302 302 303 303 305 315 316 316 318 319 318 318 317 316 316 316 316 316 315 313 311 308 305 296 296 300 297 293 290
302 301 301 300 299 300 301 303 308 315 315 317 317 317 316 316 316 316 314 309 306 302 300 300 296 296 294 293 292 292 289 288
298 297 298 299 299 299 300 302 306 314 314 315 316 316 315 315 315 306 301 300 298 295 292 292 291 291 291 290 289 288 286 286

GFSFLT1_sfc_thetae_120.txt.gz
Theta_e
311 313 317 319 322 321 322 322 330 336 339 341 339 334 332 334 336 337 339 336 332 332 330 329 329 326 324 324 324 329 329 328
312 317 321 323 325 325 327 327 331 335 335 334 330 328 327 329 332 333 331 334 332 330 329 328 326 324 323 325 324 328 326 328
314 318 320 323 326 327 328 330 333 334 333 332 332 330 330 330 329 331 330 331 333 330 329 327 325 323 322 323 324 325 326 328
314 317 319 322 324 328 328 330 332 333 334 331 333 331 331 326 327 327 329 333 334 331 329 326 324 323 320 321 323 322 323 326
314 316 318 320 325 329 330 330 331 329 331 330 331 329 328 330 330 330 332 333 332 329 327 326 323 323 321 320 322 324 328 323
312 314 317 319 324 329 330 330 328 328 330 333 333 332 331 332 328 329 330 327 328 329 326 322 323 322 322 321 322 328 328 325
312 314 317 318 322 325 326 326 326 327 328 332 333 333 330 330 328 329 330 324 323 324 321 320 319 320 320 320 321 326 327 328
312 313 315 317 320 321 323 322 323 323 325 329 330 330 330 328 329 328 328 324 321 320 320 318 317 318 318 320 320 326 327 327
311 313 316 318 321 324 324 323 321 323 323 325 328 329 328 327 329 328 327 326 324 323 320 319 316 316 317 318 320 324 327 328
310 312 315 317 318 321 325 323 323 322 321 323 325 327 330 329 330 330 331 328 326 326 324 321 319 316 315 317 320 321 323 328
309 311 313 315 316 317 317 325 322 322 321 323 327 328 330 330 329 330 330 327 327 325 323 322 321 320 317 317 318 320 322 323
308 311 312 313 316 316 315 318 320 320 321 321 326 327 328 329 325 326 326 325 324 324 324 323 322 321 321 319 317 318 321 322
308 310 312 312 314 315 314 310 319 320 321 322 324 327 327 327 325 326 326 324 328 327 325 324 322 319 319 319 317 320 322 321
307 309 311 311 312 313 313 309 309 319 320 321 322 325 324 324 324 325 324 323 323 323 324 323 322 322 320 319 319 317 317 317
306 309 311 312 311 311 311 306 307 317 319 320 321 323 322 323 325 323 322 322 322 321 322 322 321 320 321 320 319 317 316 315
306 309 311 311 309 309 307 304 306 311 317 318 320 322 324 324 325 322 322 322 321 320 321 320 317 318 318 319 318 316 313 305
308 308 308 307 306 304 302 303 304 305 316 317 320 321 322 323 323 321 320 319 319 318 318 313 308 302 294 297 301 298 294 291
305 305 305 305 305 302 299 301 303 304 311 317 319 321 321 322 321 320 318 314 310 304 302 300 296 295 292 293 292 292 290 289
303 303 302 303 303 303 299 299 301 304 307 316 318 319 319 321 319 316 308 305 301 297 294 293 292 291 290 289 288 287 286 286

GFSFLT1_sfc_thetae_123.txt.gz
Theta_e
313 314 315 319 323 325 327 326 330 334 340 344 345 343 341 338 341 344 344 344 342 340 336 334 336 331 328 326 325 327 329 329
313 314 318 321 324 326 326 327 331 328 330 335 340 340 337 334 337 344 342 340 341 336 335 332 330 327 326 326 324 323 326 328
311 315 319 322 324 326 330 329 330 330 330 335 339 339 330 330 334 338 339 339 336 336 334 329 330 327 324 324 323 321 322 328
312 315 318 321 323 328 330 329 331 333 334 336 334 332 330 328 330 331 336 335 336 336 333 329 327 327 323 323 323 321 319 324
313 313 316 319 323 329 332 332 332 333 336 335 331 327 326 327 329 330 334 334 334 334 334 330 326 326 324 323 324 323 321 320
312 313 315 318 323 325 329 332 332 333 333 334 330 329 332 333 334 331 331 333 334 335 334 331 326 325 324 324 323 322 323 323
312 314 316 318 324 326 326 328 328 328 330 331 330 330 332 332 331 330 331 333 333 333 332 329 328 324 323 323 324 322 322 324
311 312 315 317 320 323 326 325 325 327 328 330 330 332 331 333 329 329 330 327 326 327 327 324 324 323 322 322 322 321 321 322
311 312 314 316 318 320 323 325 324 324 327 327 328 331 331 332 331 331 331 328 326 326 323 322 321 320 321 322 322 322 322 322
309 311 313 315 315 317 320 324 325 324 324 327 325 327 331 332 331 330 332 331 329 325 323 320 319 318 319 320 320 321 322 323
307 310 312 313 315 317 319 321 324 325 325 325 324 325 329 330 331 331 332 332 329 325 324 320 317 317 317 318 319 320 321 322
305 308 311 313 315 317 317 318 319 323 324 324 324 324 327 329 329 330 331 331 330 328 323 321 317 315 316 317 317 319 319 320
303 308 310 312 314 315 315 315 316 317 322 322 323 323 326 325 327 329 331 329 330 327 324 322 319 317 316 316 315 317 317 319
301 306 308 311 313 314 313 314 315 316 318 321 322 322 324 325 325 328 326 326 327 327 326 325 322 319 317 317 317 317 316 318
301 303 308 311 314 313 312 312 314 313 311 319 320 322 323 324 326 325 324 326 326 326 326 327 326 322 320 319 318 318 317 317
303 306 310 312 312 312 311 309 311 311 308 310 319 322 323 322 323 323 324 324 324 324 323 322 322 322 322 320 319 318 317 317
305 308 309 309 309 309 309 308 305 308 306 306 316 321 321 322 322 322 322 323 322 321 320 316 310 305 295 299 309 311 306 296
306 306 306 307 307 306 305 305 305 304 305 307 309 319 320 323 322 321 321 320 316 308 304 303 299 296 292 293 293 293 291 289
304 305 305 305 305 302 301 302 303 302 301 303 307 318 320 322 320 318 315 311 303 298 295 295 293 291 290 290 289 288 286 285

GFSFLT1_sfc_thetae_126.txt.gz
Theta_e
314 315 317 321 323 323 324 325 326 330 339 343 342 340 339 340 340 344 342 342 343 340 337 336 334 330 328 327 326 326 325 325
311 315 317 320 324 325 326 327 328 327 330 333 336 337 338 338 338 339 342 339 340 340 336 334 333 330 328 327 326 324 323 325
310 314 319 321 323 326 326 328 329 330 325 325 332 336 341 338 337 337 338 340 339 338 334 332 332 329 327 326 325 322 322 323
310 315 318 322 323 328 328 330 330 330 329 327 332 335 333 329 331 333 335 337 337 336 335 331 330 328 326 325 324 322 318 321
313 314 316 319 323 326 329 330 332 331 333 330 331 329 326 328 329 330 331 334 333 334 333 330 329 328 325 325 325 323 320 318
312 313 315 319 324 325 327 329 330 332 333 332 333 329 329 329 328 327 329 330 331 332 332 330 328 328 325 325 324 323 322 319
312 314 317 318 324 325 327 326 325 328 328 328 332 330 328 326 327 326 327 328 330 330 330 331 328 327 325 324 324 324 322 321
311 312 313 315 319 321 321 322 323 327 328 328 329 330 329 328 329 328 327 328 329 329 330 330 327 326 325 324 324 324 322 320
311 312 313 315 317 318 319 319 321 326 326 326 327 329 330 330 329 328 328 328 327 326 326 326 326 325 324 324 323 323 322 321
310 312 312 314 314 317 318 318 318 322 325 325 326 327 328 329 330 329 329 329 326 326 323 322 322 322 322 322 322 322 321 321
307 309 311 313 315 317 319 318 317 318 321 324 325 326 327 328 328 328 328 328 327 325 322 321 320 320 320 320 321 321 320 319
302 305 310 312 315 316 316 316 315 316 317 320 324 324 325 326 327 328 329 329 327 325 321 319 318 317 318 318 319 320 320 318
301 302 308 310 313 314 314 314 313 313 315 316 321 324 324 325 326 327 327 328 328 325 323 320 318 317 317 317 317 319 319 319
301 301 301 308 311 314 313 312 311 312 312 313 316 321 322 322 325 325 327 327 327 326 324 320 318 317 316 316 317 318 318 319
300 302 303 311 312 312 311 312 310 310 310 310 311 319 321 322 325 324 324 325 324 326 325 323 320 318 316 316 316 317 317 318
299 301 308 309 309 309 310 309 309 308 306 307 309 311 321 323 323 323 323 323 322 323 323 323 323 319 317 316 316 316 315 315
300 307 306 306 306 306 306 305 304 306 305 305 308 308 316 321 321 321 321 321 321 320 320 317 311 308 294 301 311 315 314 313
304 304 304 304 304 304 301 301 302 303 303 303 304 304 310 319 320 320 319 318 314 308 305 302 298 296 293 294 294 295 293 293
302 301 301 302 302 299 298 299 299 299 299 300 299 299 303 315 320 319 314 309 304 299 296 295 292 291 291 290 289 288 287 286

GFSFLT1_sfc_thetae_132.txt.gz
Theta_e
304 309 309 307 309 314 330 339 341 341 338 338 335 333 335 334 337 338 338 340 338 336 334 332 331 329 329 327 324 325 324 324
304 308 308 309 309 311 313 323 331 332 331 332 330 331 331 332 332 337 336 340 339 336 333 331 331 329 328 326 323 321 321 323
302 304 307 310 312 317 319 318 317 320 323 330 331 332 331 334 334 332 335 337 337 334 332 330 330 329 327 326 324 322 320 324
306 310 310 313 314 318 320 321 322 322 320 316 325 328 329 330 330 331 332 334 336 334 332 331 329 329 326 326 325 323 320 323
310 310 311 314 314 317 319 320 320 324 323 316 321 325 328 331 333 333 332 331 332 334 333 332 331 329 327 326 326 325 323 319
306 309 312 311 313 315 316 318 318 319 322 323 322 320 320 322 327 331 332 331 334 334 333 332 331 330 329 327 326 324 324 321
309 313 313 314 312 312 314 317 319 320 321 320 320 322 323 321 323 328 328 327 332 334 333 333 332 330 328 327 326 325 323 322
309 311 312 310 310 312 314 315 315 318 318 320 320 321 322 323 322 325 325 325 327 330 332 330 330 329 328 327 326 325 324 322
310 310 309 311 311 312 313 313 312 314 314 316 318 320 321 323 326 324 326 326 327 330 330 330 329 328 327 326 326 325 325 322
305 307 310 310 311 310 311 311 310 311 312 312 314 314 319 321 324 325 327 327 327 328 329 329 328 326 326 325 325 324 324 324
304 305 309 310 311 311 310 310 309 309 309 310 310 311 313 318 323 325 325 327 327 326 327 327 327 326 325 324 324 324 323 324
299 304 309 310 309 309 309 308 308 307 307 308 308 308 310 313 320 321 324 327 326 325 325 325 324 324 324 323 323 323 322 322
300 306 307 307 307 306 306 307 306 306 305 305 306 308 308 308 310 317 324 325 326 325 323 322 321 320 320 320 320 320 320 320
302 305 305 305 306 306 304 303 302 302 303 303 304 305 305 305 306 310 315 323 325 325 323 321 319 318 318 318 318 318 318 319
302 301 301 300 301 300 300 299 300 300 301 301 300 302 302 303 303 305 311 317 323 324 322 321 319 317 317 317 318 318 317 318
296 297 297 295 295 295 295 295 296 298 298 297 297 299 300 299 299 301 303 308 320 324 323 321 319 317 316 316 316 316 316 316
294 294 294 293 292 291 292 292 293 296 295 295 295 294 294 295 296 297 300 305 311 323 322 320 318 316 304 301 310 315 314 314
291 292 292 291 290 289 288 289 291 291 293 292 291 291 291 292 293 295 297 300 303 315 319 320 317 314 299 299 299 312 311 311
290 290 290 289 288 287 288 288 287 289 289 288 288 289 289 290 292 293 294 296 300 311 311 308 305 296 294 296 295 296 292 289

GFSFLT1_sfc_thetae_135.txt.gz
Theta_e
300 302 303 305 306 309 328 337 338 338 338 337 335 335 336 336 337 337 337 338 337 336 334 331 330 330 329 329 326 323 324 324
298 300 303 306 307 308 327 333 337 337 336 335 334 333 333 333 336 337 337 337 337 336 335 332 331 330 329 328 325 323 319 324
298 303 303 308 307 313 327 335 336 338 337 333 329 331 332 334 332 334 336 337 337 337 335 333 331 329 329 327 325 322 320 323
297 306 308 312 314 316 319 322 326 326 325 326 327 328 329 329 328 330 332 335 335 337 335 333 331 330 327 327 326 324 320 322
298 306 311 314 315 315 317 321 323 323 320 318 323 326 325 329 331 332 331 330 332 335 333 332 331 330 327 327 327 325 324 320
297 307 313 314 315 316 315 317 321 323 323 321 320 319 321 322 327 329 330 329 331 332 332 331 330 330 329 327 326 325 324 322
300 307 311 311 311 312 315 319 319 320 320 321 320 320 321 321 323 328 329 329 328 331 332 331 331 330 329 327 327 326 325 324
299 308 311 308 308 313 315 316 315 317 318 318 317 318 319 320 321 325 326 324 325 327 330 329 330 330 330 328 327 326 325 323
299 310 310 308 309 311 312 312 312 313 313 312 313 314 316 319 321 323 324 324 324 326 327 329 331 330 329 328 327 326 325 324
303 308 308 308 308 310 310 308 309 310 309 309 309 310 312 314 317 320 323 324 325 325 329 329 329 329 328 327 326 325 325 324
303 306 308 309 309 309 308 308 307 307 306 307 307 308 309 311 315 318 320 323 323 324 326 327 328 327 327 326 325 325 324 324
304 307 308 308 307 306 305 305 304 303 303 305 305 306 308 309 309 310 314 320 322 323 325 325 326 326 325 324 324 324 323 323
303 305 305 303 302 301 300 300 300 300 302 303 304 305 305 305 305 305 307 311 318 323 325 325 325 325 324 324 323 323 322 321
299 299 298 297 296 297 296 296 297 298 300 299 299 300 301 301 300 302 303 306 310 318 323 322 322 323 323 323 323 322 321 322
296 295 295 295 294 293 293 293 295 297 297 296 296 296 296 296 298 298 299 301 304 310 318 323 322 321 321 320 321 320 319 319
292 293 293 291 291 290 290 291 292 293 294 294 293 293 294 294 295 295 297 298 301 306 310 322 321 320 319 318 318 317 317 316
290 291 290 289 288 288 288 288 288 290 291 290 290 290 291 292 292 293 295 296 297 299 304 310 320 318 305 302 311 315 315 314
287 287 287 287 286 286 285 286 287 287 287 287 287 288 288 289 291 292 293 294 294 296 299 304 317 318 301 301 301 314 313 313
285 285 285 285 284 284 285 285 284 284 284 283 284 285 286 288 290 290 291 292 293 294 296 302 310 312 298 298 298 308 306 300